Location: Dattensoll
(49.9928°N, 9.8954°E)
Time: 10:01:32
(UTC+00:00)

ARIANE 5 R/B - Pass Details

Date: 19 May 2025
Orbit: 615 x 647 km, 98.0° (Epoch: 20 June)

Event Time Altitude Azimuth Distance (km) Brightness Sun altitude
Exits shadow 21:23:52 20° 113° (ESE) 1,425 4.0 -15.7°
Maximum altitude 21:26:01 32° 66° (ENE) 1,073 3.7 -15.9°
Drops below altitude 10° 21:29:54 10° 3° (N) 2,008 6.1 -16.1°
Sets 21:32:16 0° 354° (N) 2,925 7.4 -16.3°
